DL1MMS-10 Weather Reports


Display with metric or nautical units.
time (UTC)temp
F
wind
direction
speed
MPH
gust
MPH
rain 1hr
in
rain 24hr
in
rain mn
in
humidity
%
barometer
mb
20260902203312 64 0 0.0 0.0 0.00 0.00 0.00 65 1022.4
20260902202812 64 0 0.0 0.0 0.00 0.00 0.00 65 1022.5
20260902202312 64 0 0.0 0.0 0.00 0.00 0.00 65 1022.3
20260902201811 64 0 0.0 0.0 0.00 0.00 0.00 65 1022.3
20260902201311 64 0 0.0 0.0 0.00 0.00 0.00 65 1022.3
20260902200811 65 0 0.0 0.0 0.00 0.00 0.00 64 1022.3
20260902200310 65 0 0.0 0.0 0.00 0.00 0.00 62 1022.1
20260902195810 65 0 0.0 0.0 0.00 0.00 0.00 61 1022.0
20260902195310 66 0 0.0 0.0 0.00 0.00 0.00 61 1022.2
20260902194810 66 0 0.0 0.0 0.00 0.00 0.00 61 1022.3
20260902194309 66 0 0.0 0.0 0.00 0.00 0.00 61 1022.2
20260902193809 66 0 0.0 0.0 0.00 0.00 0.00 60 1022.1
20260902193309 66 0 0.0 0.0 0.00 0.00 0.00 60 1022.0
20260902192808 66 0 0.0 0.0 0.00 0.00 0.00 60 1022.1
20260902192308 66 0 0.0 0.0 0.00 0.00 0.00 60 1022.1
20260902191808 66 0 0.0 0.0 0.00 0.00 0.00 60 1022.0
20260902191308 66 0 0.0 0.0 0.00 0.00 0.00 60 1021.9
20260902190807 67 0 0.0 0.0 0.00 0.00 0.00 59 1022.1
20260902190307 67 0 0.0 0.0 0.00 0.00 0.00 58 1022.1
20260902185807 67 0 0.0 0.0 0.00 0.00 0.00 58 1022.0
20260902185307 67 0 0.0 0.0 0.00 0.00 0.00 57 1021.9
20260902184806 67 0 0.0 0.0 0.00 0.00 0.00 57 1021.9
20260902184306 67 0 0.0 0.0 0.00 0.00 0.00 56 1022.0
20260902183806 68 0 0.0 0.0 0.00 0.00 0.00 55 1022.0
20260902183305 68 0 0.0 0.0 0.00 0.00 0.00 54 1021.8
20260902182805 68 0 0.0 0.0 0.00 0.00 0.00 54 1021.8
20260902182306 68 0 0.0 0.0 0.00 0.00 0.00 53 1021.8
20260902181805 68 0 0.0 0.0 0.00 0.00 0.00 53 1021.7
20260902181304 69 0 0.0 0.0 0.00 0.00 0.00 52 1021.6
20260902180804 69 0 0.0 0.0 0.00 0.00 0.00 52 1021.6
20260902180304 69 0 0.0 0.0 0.00 0.00 0.00 52 1021.6
20260902175803 69 0 0.0 0.0 0.00 0.00 0.00 51 1021.5
20260902175307 69 0 0.0 0.0 0.00 0.00 0.00 51 1021.4
20260902174803 69 0 0.0 0.0 0.00 0.00 0.00 50 1021.5
20260902174303 70 0 0.0 0.0 0.00 0.00 0.00 50 1021.3
20260902173802 70 0 0.0 0.0 0.00 0.00 0.00 50 1021.2
20260902173302 70 0 0.0 0.0 0.00 0.00 0.00 49 1021.3
20260902172802 71 0 0.0 0.0 0.00 0.00 0.00 49 1021.2
20260902172301 71 0 0.0 0.0 0.00 0.00 0.00 49 1021.2
20260902171801 71 0 0.0 0.0 0.00 0.00 0.00 48 1021.1
20260902171301 72 0 0.0 0.0 0.00 0.00 0.00 47 1021.3
20260902170801 72 0 0.0 0.0 0.00 0.00 0.00 47 1021.4
20260902170300 73 0 0.0 0.0 0.00 0.00 0.00 46 1021.4
20260902165800 73 0 0.0 0.0 0.00 0.00 0.00 46 1021.2
20260902165300 73 0 0.0 0.0 0.00 0.00 0.00 46 1021.3
20260902164759 74 0 0.0 0.0 0.00 0.00 0.00 46 1021.3
20260902164259 74 0 0.0 0.0 0.00 0.00 0.00 45 1021.1
20260902163759 74 0 0.0 0.0 0.00 0.00 0.00 45 1021.1
20260902163259 75 0 0.0 0.0 0.00 0.00 0.00 44 1021.2
20260902162758 75 0 0.0 0.0 0.00 0.00 0.00 44 1021.2
20260902162258 75 0 0.0 0.0 0.00 0.00 0.00 43 1021.3
20260902161758 76 0 0.0 0.0 0.00 0.00 0.00 41 1021.2
20260902161257 77 0 0.0 0.0 0.00 0.00 0.00 40 1021.2
20260902160757 77 0 0.0 0.0 0.00 0.00 0.00 38 1021.1
20260902160257 78 0 0.0 0.0 0.00 0.00 0.00 37 1021.0
20260902155757 79 0 0.0 0.0 0.00 0.00 0.00 35 1021.0
20260902155256 81 0 0.0 0.0 0.00 0.00 0.00 33 1021.1
20260902154756 84 0 0.0 0.0 0.00 0.00 0.00 31 1021.1
20260902154256 86 0 0.0 0.0 0.00 0.00 0.00 29 1021.1
20260902153755 88 0 0.0 0.0 0.00 0.00 0.00 28 1021.1
20260902153255 89 0 0.0 0.0 0.00 0.00 0.00 27 1021.1
20260902152755 89 0 0.0 0.0 0.00 0.00 0.00 28 1021.1
20260902152255 89 0 0.0 0.0 0.00 0.00 0.00 27 1021.1
20260902151754 88 0 0.0 0.0 0.00 0.00 0.00 27 1021.3
20260902151254 90 0 0.0 0.0 0.00 0.00 0.00 26 1021.3
20260902150754 92 0 0.0 0.0 0.00 0.00 0.00 26 1021.2
20260902150254 94 0 0.0 0.0 0.00 0.00 0.00 26 1021.2
20260902145753 94 0 0.0 0.0 0.00 0.00 0.00 26 1021.1
20260902145253 93 0 0.0 0.0 0.00 0.00 0.00 26 1021.0
20260902144753 93 0 0.0 0.0 0.00 0.00 0.00 26 1021.0
20260902144252 92 0 0.0 0.0 0.00 0.00 0.00 27 1021.2
20260902143752 93 0 0.0 0.0 0.00 0.00 0.00 26 1021.1
20260902143252 93 0 0.0 0.0 0.00 0.00 0.00 25 1021.2
20260902142751 94 0 0.0 0.0 0.00 0.00 0.00 25 1021.1
20260902142251 95 0 0.0 0.0 0.00 0.00 0.00 25 1021.1
20260902141751 92 0 0.0 0.0 0.00 0.00 0.00 26 1021.1
20260902141251 93 0 0.0 0.0 0.00 0.00 0.00 25 1021.0
20260902140750 94 0 0.0 0.0 0.00 0.00 0.00 24 1021.2
20260902140250 95 0 0.0 0.0 0.00 0.00 0.00 24 1021.2
20260902135750 94 0 0.0 0.0 0.00 0.00 0.00 26 1021.3
20260902135250 94 0 0.0 0.0 0.00 0.00 0.00 25 1021.3
20260902134749 96 0 0.0 0.0 0.00 0.00 0.00 24 1021.2
20260902134249 97 0 0.0 0.0 0.00 0.00 0.00 23 1021.3
20260902133749 99 0 0.0 0.0 0.00 0.00 0.00 24 1021.3
20260902133248 98 0 0.0 0.0 0.00 0.00 0.00 24 1021.3
20260902132748 98 0 0.0 0.0 0.00 0.00 0.00 23 1021.3
20260902132248 100 0 0.0 0.0 0.00 0.00 0.00 23 1021.4
20260902131748 101 0 0.0 0.0 0.00 0.00 0.00 23 1021.3
20260902131247 102 0 0.0 0.0 0.00 0.00 0.00 23 1021.1
20260902130747 101 0 0.0 0.0 0.00 0.00 0.00 24 1021.2
20260902130247 100 0 0.0 0.0 0.00 0.00 0.00 25 1021.2
20260902125746 98 0 0.0 0.0 0.00 0.00 0.00 25 1021.3
20260902125246 97 0 0.0 0.0 0.00 0.00 0.00 26 1021.3
20260902124746 96 0 0.0 0.0 0.00 0.00 0.00 26 1021.4
20260902124246 95 0 0.0 0.0 0.00 0.00 0.00 26 1021.5
20260902123745 95 0 0.0 0.0 0.00 0.00 0.00 26 1021.5
20260902123245 96 0 0.0 0.0 0.00 0.00 0.00 25 1021.6
20260902122745 98 0 0.0 0.0 0.00 0.00 0.00 25 1021.7
20260902122244 100 0 0.0 0.0 0.00 0.00 0.00 25 1021.6
20260902121744 97 0 0.0 0.0 0.00 0.00 0.00 27 1021.7
20260902121244 97 0 0.0 0.0 0.00 0.00 0.00 27 1021.7
20260902120744 97 0 0.0 0.0 0.00 0.00 0.00 29 1021.8
20260902120243 98 0 0.0 0.0 0.00 0.00 0.00 29 1021.8
20260902115743 98 0 0.0 0.0 0.00 0.00 0.00 29 1021.6
20260902115243 97 0 0.0 0.0 0.00 0.00 0.00 29 1021.7
20260902114742 97 0 0.0 0.0 0.00 0.00 0.00 29 1021.8
20260902114242 96 0 0.0 0.0 0.00 0.00 0.00 30 1021.9
20260902113742 97 0 0.0 0.0 0.00 0.00 0.00 30 1021.8
20260902113242 96 0 0.0 0.0 0.00 0.00 0.00 31 1021.8
20260902112741 93 0 0.0 0.0 0.00 0.00 0.00 32 1021.8
20260902112241 90 0 0.0 0.0 0.00 0.00 0.00 35 1021.8
20260902111741 87 0 0.0 0.0 0.00 0.00 0.00 35 1021.9
20260902111240 89 0 0.0 0.0 0.00 0.00 0.00 35 1021.8
20260902110740 89 0 0.0 0.0 0.00 0.00 0.00 36 1021.8
20260902110240 86 0 0.0 0.0 0.00 0.00 0.00 39 1021.9
20260902105740 82 0 0.0 0.0 0.00 0.00 0.00 41 1022.0
20260902105239 79 0 0.0 0.0 0.00 0.00 0.00 43 1022.1
20260902104739 81 0 0.0 0.0 0.00 0.00 0.00 41 1022.1
20260902104239 82 0 0.0 0.0 0.00 0.00 0.00 40 1022.1
20260902103738 84 0 0.0 0.0 0.00 0.00 0.00 40 1022.1
20260902103238 84 0 0.0 0.0 0.00 0.00 0.00 42 1022.1
20260902102738 83 0 0.0 0.0 0.00 0.00 0.00 44 1022.1
20260902102238 81 0 0.0 0.0 0.00 0.00 0.00 44 1022.1
20260902101737 82 0 0.0 0.0 0.00 0.00 0.00 42 1022.2
20260902101237 82 0 0.0 0.0 0.00 0.00 0.00 43 1022.2
20260902100737 81 0 0.0 0.0 0.00 0.00 0.00 46 1022.1
20260902100237 79 0 0.0 0.0 0.00 0.00 0.00 49 1022.2
20260902095736 77 0 0.0 0.0 0.00 0.00 0.00 52 1022.3
20260902095236 75 0 0.0 0.0 0.00 0.00 0.00 55 1022.0
20260902094736 74 0 0.0 0.0 0.00 0.00 0.00 56 1022.1
20260902094235 73 0 0.0 0.0 0.00 0.00 0.00 57 1022.1
20260902093735 72 0 0.0 0.0 0.00 0.00 0.00 57 1022.0
20260902093235 72 0 0.0 0.0 0.00 0.00 0.00 56 1022.0
20260902092734 72 0 0.0 0.0 0.00 0.00 0.00 57 1022.0
20260902092234 72 0 0.0 0.0 0.00 0.00 0.00 57 1022.0
20260902091734 72 0 0.0 0.0 0.00 0.00 0.00 57 1021.9
20260902091234 72 0 0.0 0.0 0.00 0.00 0.00 59 1022.0
20260902090733 72 0 0.0 0.0 0.00 0.00 0.00 59 1022.1
20260902090233 72 0 0.0 0.0 0.00 0.00 0.00 59 1022.1
20260902085733 71 0 0.0 0.0 0.00 0.00 0.00 59 1022.1
20260902085232 71 0 0.0 0.0 0.00 0.00 0.00 61 1022.2
20260902084732 70 0 0.0 0.0 0.00 0.00 0.00 65 1022.2
20260902084232 69 0 0.0 0.0 0.00 0.00 0.00 67 1022.4
20260902083732 67 0 0.0 0.0 0.00 0.00 0.00 70 1022.3
20260902083231 67 0 0.0 0.0 0.00 0.00 0.00 71 1022.1
20260902082731 66 0 0.0 0.0 0.00 0.00 0.00 71 1022.3
20260902082231 66 0 0.0 0.0 0.00 0.00 0.00 71 1022.2
20260902081731 65 0 0.0 0.0 0.00 0.00 0.00 73 1022.1
20260902081230 65 0 0.0 0.0 0.00 0.00 0.00 75 1021.9
20260902080730 64 0 0.0 0.0 0.00 0.00 0.00 76 1022.0
20260902080230 63 0 0.0 0.0 0.00 0.00 0.00 78 1022.2
20260902075729 62 0 0.0 0.0 0.00 0.00 0.00 79 1022.2
20260902075229 62 0 0.0 0.0 0.00 0.00 0.00 80 1022.2
20260902074729 61 0 0.0 0.0 0.00 0.00 0.00 80 1022.1
20260902074228 61 0 0.0 0.0 0.00 0.00 0.00 81 1022.0
20260902073728 60 0 0.0 0.0 0.00 0.00 0.00 81 1022.1
20260902073228 60 0 0.0 0.0 0.00 0.00 0.00 81 1022.0
20260902072728 60 0 0.0 0.0 0.00 0.00 0.00 82 1022.0
20260902072227 59 0 0.0 0.0 0.00 0.00 0.00 83 1022.1
20260902071727 59 0 0.0 0.0 0.00 0.00 0.00 83 1022.0
20260902071227 58 0 0.0 0.0 0.00 0.00 0.00 84 1022.1
20260902070727 57 0 0.0 0.0 0.00 0.00 0.00 84 1022.2
20260902070226 57 0 0.0 0.0 0.00 0.00 0.00 85 1021.9
20260902065726 57 0 0.0 0.0 0.00 0.00 0.00 86 1021.9
20260902065226 56 0 0.0 0.0 0.00 0.00 0.00 86 1022.0
20260902064725 55 0 0.0 0.0 0.00 0.00 0.00 87 1022.0
20260902064225 55 0 0.0 0.0 0.00 0.00 0.00 87 1021.9
20260902063725 54 0 0.0 0.0 0.00 0.00 0.00 87 1021.9
20260902063225 53 0 0.0 0.0 0.00 0.00 0.00 87 1021.8
20260902062724 53 0 0.0 0.0 0.00 0.00 0.00 87 1021.8
20260902062224 52 0 0.0 0.0 0.00 0.00 0.00 87 1021.9
20260902061724 51 0 0.0 0.0 0.00 0.00 0.00 87 1022.0
20260902061223 51 0 0.0 0.0 0.00 0.00 0.00 87 1022.1
20260902060723 51 0 0.0 0.0 0.00 0.00 0.00 87 1022.1
20260902060223 50 0 0.0 0.0 0.00 0.00 0.00 87 1022.2
20260902055723 50 0 0.0 0.0 0.00 0.00 0.00 87 1022.2
20260902055222 50 0 0.0 0.0 0.00 0.00 0.00 87 1022.1
20260902054722 49 0 0.0 0.0 0.00 0.00 0.00 87 1022.2
20260902054222 49 0 0.0 0.0 0.00 0.00 0.00 87 1022.1
20260902053721 48 0 0.0 0.0 0.00 0.00 0.00 87 1022.1
20260902053221 48 0 0.0 0.0 0.00 0.00 0.00 87 1022.0
20260902052721 48 0 0.0 0.0 0.00 0.00 0.00 87 1022.0
20260902052221 47 0 0.0 0.0 0.00 0.00 0.00 86 1022.0
20260902051720 47 0 0.0 0.0 0.00 0.00 0.00 86 1021.9
20260902051220 47 0 0.0 0.0 0.00 0.00 0.00 86 1021.9
20260902050720 47 0 0.0 0.0 0.00 0.00 0.00 86 1021.8
20260902050219 47 0 0.0 0.0 0.00 0.00 0.00 86 1021.8
20260902045719 47 0 0.0 0.0 0.00 0.00 0.00 86 1021.9
20260902045219 47 0 0.0 0.0 0.00 0.00 0.00 85 1021.9
20260902044719 47 0 0.0 0.0 0.00 0.00 0.00 85 1021.9
20260902044218 47 0 0.0 0.0 0.00 0.00 0.00 85 1021.8
20260902043718 47 0 0.0 0.0 0.00 0.00 0.00 85 1021.8
20260902043218 47 0 0.0 0.0 0.00 0.00 0.00 85 1021.8
20260902042717 47 0 0.0 0.0 0.00 0.00 0.00 85 1021.8
20260902042217 47 0 0.0 0.0 0.00 0.00 0.00 85 1021.8
20260902041717 48 0 0.0 0.0 0.00 0.00 0.00 85 1021.7
20260902041217 47 0 0.0 0.0 0.00 0.00 0.00 85 1021.7
20260902040716 48 0 0.0 0.0 0.00 0.00 0.00 85 1021.6
20260902040216 48 0 0.0 0.0 0.00 0.00 0.00 85 1021.7
20260902035716 48 0 0.0 0.0 0.00 0.00 0.00 85 1021.6
20260902035215 48 0 0.0 0.0 0.00 0.00 0.00 84 1021.7
20260902034715 48 0 0.0 0.0 0.00 0.00 0.00 84 1021.7
20260902034215 48 0 0.0 0.0 0.00 0.00 0.00 84 1021.6
20260902033715 48 0 0.0 0.0 0.00 0.00 0.00 84 1021.6
20260902033214 48 0 0.0 0.0 0.00 0.00 0.00 84 1021.7
20260902032714 48 0 0.0 0.0 0.00 0.00 0.00 84 1021.7
20260902032214 48 0 0.0 0.0 0.00 0.00 0.00 84 1021.7
20260902031713 48 0 0.0 0.0 0.00 0.00 0.00 84 1021.8
20260902031213 49 0 0.0 0.0 0.00 0.00 0.00 84 1021.9
20260902030713 49 0 0.0 0.0 0.00 0.00 0.00 84 1021.9
20260902030213 49 0 0.0 0.0 0.00 0.00 0.00 84 1021.9
20260902025712 49 0 0.0 0.0 0.00 0.00 0.00 84 1021.8
20260902025212 49 0 0.0 0.0 0.00 0.00 0.00 84 1021.9
20260902024712 49 0 0.0 0.0 0.00 0.00 0.00 84 1021.9
20260902024211 49 0 0.0 0.0 0.00 0.00 0.00 84 1021.9
20260902023711 49 0 0.0 0.0 0.00 0.00 0.00 84 1022.0
20260902023211 49 0 0.0 0.0 0.00 0.00 0.00 84 1021.9
20260902022711 49 0 0.0 0.0 0.00 0.00 0.00 83 1021.9
20260902022210 49 0 0.0 0.0 0.00 0.00 0.00 83 1021.9
20260902021710 49 0 0.0 0.0 0.00 0.00 0.00 83 1021.9
20260902021210 50 0 0.0 0.0 0.00 0.00 0.00 83 1022.0
20260902020709 50 0 0.0 0.0 0.00 0.00 0.00 83 1022.0
20260902020209 50 0 0.0 0.0 0.00 0.00 0.00 83 1022.1
20260902015709 50 0 0.0 0.0 0.00 0.00 0.00 83 1022.1
20260902015209 50 0 0.0 0.0 0.00 0.00 0.00 83 1022.1
20260902014708 50 0 0.0 0.0 0.00 0.00 0.00 83 1022.1
20260902014208 50 0 0.0 0.0 0.00 0.00 0.00 83 1022.1
20260902013708 50 0 0.0 0.0 0.00 0.00 0.00 83 1022.1
20260902013208 50 0 0.0 0.0 0.00 0.00 0.00 83 1022.0
20260902012707 50 0 0.0 0.0 0.00 0.00 0.00 83 1022.1
20260902012207 50 0 0.0 0.0 0.00 0.00 0.00 82 1022.2
20260902011707 51 0 0.0 0.0 0.00 0.00 0.00 82 1022.2
20260902011206 51 0 0.0 0.0 0.00 0.00 0.00 82 1022.1
20260902010706 51 0 0.0 0.0 0.00 0.00 0.00 82 1022.2
20260902010206 51 0 0.0 0.0 0.00 0.00 0.00 82 1022.1
20260902005706 51 0 0.0 0.0 0.00 0.00 0.00 82 1022.2
20260902005205 51 0 0.0 0.0 0.00 0.00 0.00 82 1022.2
20260902004705 51 0 0.0 0.0 0.00 0.00 0.00 82 1022.2
20260902004205 51 0 0.0 0.0 0.00 0.00 0.00 81 1022.2
20260902003704 51 0 0.0 0.0 0.00 0.00 0.00 81 1022.3
20260902003204 51 0 0.0 0.0 0.00 0.00 0.00 81 1022.3
20260902002704 51 0 0.0 0.0 0.00 0.00 0.00 81 1022.3
20260902002204 52 0 0.0 0.0 0.00 0.00 0.00 81 1022.4
20260902001703 52 0 0.0 0.0 0.00 0.00 0.00 81 1022.3
20260902001203 52 0 0.0 0.0 0.00 0.00 0.00 80 1022.4
20260902000703 52 0 0.0 0.0 0.00 0.00 0.00 80 1022.4
20260902000204 52 0 0.0 0.0 0.00 0.00 0.00 80 1022.4
20260901235702 52 0 0.0 0.0 0.00 0.00 0.00 80 1022.3
20260901235202 53 0 0.0 0.0 0.00 0.00 0.00 80 1022.3
20260901234702 53 0 0.0 0.0 0.00 0.00 0.00 80 1022.3
20260901234201 53 0 0.0 0.0 0.00 0.00 0.00 79 1022.3
20260901233701 53 0 0.0 0.0 0.00 0.00 0.00 79 1022.3
20260901233201 53 0 0.0 0.0 0.00 0.00 0.00 79 1022.3
20260901232700 53 0 0.0 0.0 0.00 0.00 0.00 79 1022.4
20260901232200 53 0 0.0 0.0 0.00 0.00 0.00 79 1022.3
20260901231700 53 0 0.0 0.0 0.00 0.00 0.00 78 1022.2
20260901231200 54 0 0.0 0.0 0.00 0.00 0.00 78 1022.3
20260901230659 54 0 0.0 0.0 0.00 0.00 0.00 79 1022.4
20260901230159 54 0 0.0 0.0 0.00 0.00 0.00 78 1022.5
20260901225659 54 0 0.0 0.0 0.00 0.00 0.00 78 1022.5
20260901225158 54 0 0.0 0.0 0.00 0.00 0.00 77 1022.4
20260901224658 54 0 0.0 0.0 0.00 0.00 0.00 77 1022.5
20260901224158 54 0 0.0 0.0 0.00 0.00 0.00 77 1022.6
20260901223658 55 0 0.0 0.0 0.00 0.00 0.00 77 1022.6
20260901223157 55 0 0.0 0.0 0.00 0.00 0.00 77 1022.6
20260901222657 55 0 0.0 0.0 0.00 0.00 0.00 77 1022.5
20260901222157 55 0 0.0 0.0 0.00 0.00 0.00 76 1022.5
20260901221656 55 0 0.0 0.0 0.00 0.00 0.00 76 1022.7
20260901221156 55 0 0.0 0.0 0.00 0.00 0.00 75 1022.7
20260901220656 56 0 0.0 0.0 0.00 0.00 0.00 75 1022.6
20260901220156 56 0 0.0 0.0 0.00 0.00 0.00 75 1022.7
20260901215655 56 0 0.0 0.0 0.00 0.00 0.00 75 1022.7
20260901215155 56 0 0.0 0.0 0.00 0.00 0.00 75 1022.6
20260901214655 56 0 0.0 0.0 0.00 0.00 0.00 74 1022.7
20260901214155 56 0 0.0 0.0 0.00 0.00 0.00 74 1022.8
20260901213654 56 0 0.0 0.0 0.00 0.00 0.00 74 1022.7
20260901213154 56 0 0.0 0.0 0.00 0.00 0.00 74 1022.6
20260901212654 57 0 0.0 0.0 0.00 0.00 0.00 74 1022.5
20260901212153 57 0 0.0 0.0 0.00 0.00 0.00 74 1022.5
20260901211653 57 0 0.0 0.0 0.00 0.00 0.00 74 1022.5
20260901211153 57 0 0.0 0.0 0.00 0.00 0.00 74 1022.8
20260901210652 57 0 0.0 0.0 0.00 0.00 0.00 73 1022.7
20260901210152 57 0 0.0 0.0 0.00 0.00 0.00 73 1022.7
20260901205652 57 0 0.0 0.0 0.00 0.00 0.00 73 1022.4
20260901205152 57 0 0.0 0.0 0.00 0.00 0.00 72 1022.5
20260901204651 57 0 0.0 0.0 0.00 0.00 0.00 72 1022.5
20260901204151 57 0 0.0 0.0 0.00 0.00 0.00 72 1022.5
20260901203651 58 0 0.0 0.0 0.00 0.00 0.00 71 1022.4